GW5507 Weather Reports


time (UTC)temp
C
wind
direction
speed
KPH
gust
KPH
rain 1hr
cm
rain 24hr
cm
rain mn
cm
humidity
%
barometer
mb
20260510060931 11 254 0.0 0.0 0.00 0.30 0.30 99 1008.5
20260510060428 11 252 0.0 0.0 0.00 0.30 0.30 99 1008.1
20260510055924 11 252 0.0 0.0 0.00 0.30 0.30 99 1008.3
20260510055420 11 253 0.0 0.0 0.00 0.30 0.30 99 1008.4
20260510054918 11 264 1.6 1.6 0.00 0.30 0.30 99 1008.5
20260510054414 11 259 0.0 0.0 0.00 0.30 0.30 99 1008.5
20260510053909 11 253 0.0 0.0 0.00 0.30 0.30 99 1008.6
20260510053405 12 254 0.0 0.0 0.00 0.30 0.30 99 1008.5
20260510052901 12 253 0.0 1.6 0.00 0.30 0.30 99 1008.7
20260510052357 12 256 0.0 0.0 0.00 0.30 0.30 99 1008.8
20260510051853 12 255 0.0 0.0 0.00 0.30 0.30 99 1008.8
20260510051350 12 252 0.0 0.0 0.00 0.30 0.30 99 1008.9
20260510050846 12 253 0.0 0.0 0.18 0.30 0.30 99 1009.1
20260510050343 12 238 1.6 1.6 0.30 0.30 0.30 99 1009.1
20260510045840 12 251 0.0 0.0 0.30 0.28 0.28 99 1008.6
20260510045337 12 239 1.6 1.6 0.48 0.25 0.25 99 1009.4
20260510044834 12 256 0.0 0.0 0.48 0.23 0.23 99 1009.6
20260510044331 12 257 0.0 0.0 0.30 0.18 0.18 99 1009.6
20260510043828 12 240 1.6 3.2 0.13 0.15 0.15 99 1009.3
20260510043323 12 257 0.0 0.0 0.00 0.13 0.13 99 1009.3
20260510042821 12 252 0.0 0.0 0.00 0.13 0.13 99 1009.1
20260510042317 12 244 1.6 1.6 0.18 0.13 0.13 99 1009.1
20260510041814 12 247 0.0 0.0 0.30 0.13 0.13 99 1009.4
20260510041311 12 264 0.0 1.6 0.43 0.10 0.10 99 1009.5
20260510040808 12 255 0.0 0.0 0.48 0.08 0.08 99 1009.3
20260510040305 12 253 0.0 0.0 0.18 0.03 0.03 99 1009.2
20260510035800 12 234 3.2 3.2 0.00 2.24 2.24 99 1008.7
20260510035256 12 248 1.6 1.6 0.13 2.24 2.24 99 1008.7
20260510034752 12 254 0.0 0.0 0.13 2.24 2.24 99 1008.5
20260510034250 12 262 0.0 0.0 0.00 2.21 2.21 99 1008.5
20260510033746 12 260 0.0 1.6 0.00 2.21 2.21 99 1007.9
20260510033244 12 275 0.0 0.0 0.00 2.21 2.21 99 1008.0
20260510032740 12 255 0.0 0.0 0.18 2.21 2.21 99 1007.9
20260510032236 12 250 4.8 4.8 0.48 2.21 2.21 99 1008.0
20260510031732 12 241 4.8 8.0 0.48 2.18 2.18 99 1008.0
20260510031227 12 247 0.0 1.6 0.30 2.13 2.13 99 1008.0
20260510030727 12 241 1.6 1.6 0.30 2.11 2.11 99 1008.2
20260510030225 12 247 1.6 1.6 0.18 2.08 2.08 99 1008.4
20260510025722 12 262 0.0 0.0 0.00 2.06 2.06 99 1008.8
20260510025219 12 259 0.0 0.0 0.00 2.06 2.06 99 1008.7
20260510024716 12 256 0.0 0.0 0.00 2.06 2.06 99 1008.4
20260510024212 12 256 0.0 0.0 0.00 2.06 2.06 99 1008.3
20260510023708 12 248 3.2 3.2 0.00 2.06 2.06 99 1008.6
20260510023205 12 266 0.0 1.6 0.13 2.06 2.06 99 1008.4
20260510022701 12 261 0.0 0.0 0.13 2.06 2.06 99 1008.3
20260510022156 12 245 0.0 1.6 0.18 2.03 2.03 99 1008.2
20260510021651 12 224 8.0 9.7 0.18 2.03 2.03 99 1008.5
20260510021149 12 235 1.6 3.2 0.30 2.01 2.01 99 1008.7
20260510020643 12 253 1.6 3.2 0.71 2.01 2.01 99 1008.6
20260510020139 12 250 1.6 1.6 0.71 1.96 1.96 99 1008.7
20260510015635 12 253 0.0 0.0 0.66 1.88 1.88 99 1009.2
20260510015132 12 257 0.0 0.0 0.79 1.83 1.83 99 1009.1
20260510014627 12 260 0.0 0.0 0.61 1.78 1.78 99 1008.8
20260510014125 12 255 0.0 0.0 0.30 1.70 1.70 99 1008.9
20260510013625 12 251 0.0 0.0 0.61 1.68 1.68 99 1009.1
20260510013120 12 257 0.0 0.0 0.89 1.65 1.65 98 1008.8
20260510012620 12 311 1.6 3.2 1.19 1.57 1.57 98 1009.1
20260510012117 12 267 1.6 1.6 2.16 1.50 1.50 97 1008.9
20260510011616 12 278 1.6 3.2 4.85 1.37 1.37 96 1008.3
20260510011112 13 342 4.8 4.8 3.61 1.17 1.17 93 1008.4
20260510010609 15 347 4.8 9.7 0.00 0.56 0.56 84 1007.9
20260510010106 16 358 4.8 8.0 0.00 0.56 0.56 77 1007.3
20260510005601 17 12 1.6 1.6 0.00 0.56 0.56 73 1007.0
20260510005059 17 251 0.0 0.0 0.00 0.56 0.56 68 1005.9
20260510004557 18 247 1.6 1.6 0.00 0.56 0.56 66 1006.2
20260510004055 18 256 0.0 1.6 0.00 0.56 0.56 65 1006.0
20260510003551 17 281 3.2 3.2 0.00 0.56 0.56 65 1006.1
20260510003047 18 255 1.6 3.2 0.00 0.56 0.56 65 1006.0
20260510002542 18 259 3.2 3.2 0.00 0.56 0.56 64 1005.8
20260510002040 18 252 0.0 1.6 0.00 0.56 0.56 64 1005.9
20260510001537 18 253 1.6 3.2 0.00 0.56 0.56 64 1005.7
20260510001035 18 252 4.8 8.0 0.00 0.56 0.56 65 1005.7
20260510000530 18 245 1.6 1.6 0.00 0.56 0.56 64 1005.5
20260510000027 18 265 4.8 4.8 0.00 0.56 0.56 64 1005.6
20260509235524 18 247 6.4 9.7 0.00 0.56 0.56 63 1005.6
20260509235021 18 250 0.0 1.6 0.00 0.56 0.56 64 1005.4
20260509234517 18 222 1.6 3.2 0.00 0.56 0.56 63 1005.3
20260509234015 18 255 4.8 8.0 0.00 0.56 0.56 63 1005.4
20260509233512 18 283 3.2 8.0 0.00 0.56 0.56 63 1005.3
20260509233009 18 257 0.0 1.6 0.00 0.56 0.56 64 1005.0
20260509232506 19 217 8.0 11.3 0.00 0.56 0.56 62 1005.0
20260509232002 19 257 0.0 0.0 0.00 0.56 0.56 61 1004.8
20260509231459 19 203 4.8 4.8 0.00 0.56 0.56 60 1005.0
20260509230956 19 217 8.0 11.3 0.00 0.56 0.56 62 1005.1
20260509230453 19 256 1.6 1.6 0.00 0.56 0.56 62 1005.0
20260509225949 19 294 6.4 8.0 0.00 0.56 0.56 61 1005.1
20260509225446 20 266 1.6 1.6 0.00 0.56 0.56 61 1005.4
20260509224941 20 204 4.8 4.8 0.00 0.56 0.56 60 1005.3
20260509224437 20 209 6.4 9.7 0.00 0.56 0.56 59 1005.1
20260509223934 20 257 4.8 4.8 0.00 0.56 0.56 59 1005.1
20260509223431 20 245 3.2 4.8 0.00 0.56 0.56 59 1004.7
20260509222929 20 234 1.6 3.2 0.00 0.56 0.56 59 1004.9
20260509222423 20 271 3.2 4.8 0.00 0.56 0.56 59 1004.9
20260509221919 20 259 8.0 12.9 0.00 0.56 0.56 58 1004.8
20260509221416 20 288 4.8 9.7 0.00 0.56 0.56 59 1004.9
20260509220912 20 251 3.2 3.2 0.00 0.56 0.56 59 1005.0
20260509220408 20 255 3.2 4.8 0.00 0.56 0.56 60 1005.4
20260509215904 20 252 1.6 1.6 0.00 0.56 0.56 59 1005.3
20260509215400 20 262 1.6 1.6 0.00 0.56 0.56 60 1005.0
20260509214858 20 235 1.6 3.2 0.00 0.56 0.56 59 1005.1
20260509214355 20 216 8.0 9.7 0.00 0.56 0.56 57 1005.3
20260509213852 20 241 3.2 3.2 0.00 0.56 0.56 59 1005.3
20260509213347 20 274 4.8 8.0 0.00 0.56 0.56 58 1005.4
20260509212845 20 200 6.4 8.0 0.00 0.56 0.56 58 1005.4
20260509212342 21 268 1.6 3.2 0.00 0.56 0.56 59 1005.3
20260509211838 21 250 1.6 1.6 0.00 0.56 0.56 58 1005.5
20260509211334 21 207 9.7 11.3 0.00 0.56 0.56 56 1005.4
20260509210831 21 252 9.7 12.9 0.00 0.56 0.56 56 1005.3
20260509210329 21 270 1.6 1.6 0.00 0.56 0.56 59 1005.3
20260509205828 21 239 1.6 1.6 0.00 0.56 0.56 60 1005.6
20260509205323 20 248 4.8 4.8 0.00 0.56 0.56 60 1005.7
20260509204820 21 285 8.0 8.0 0.00 0.56 0.56 59 1005.7
20260509204316 21 256 4.8 9.7 0.00 0.56 0.56 58 1005.8
20260509203812 21 234 4.8 4.8 0.00 0.56 0.56 58 1006.0
20260509203309 20 257 3.2 4.8 0.00 0.56 0.56 59 1005.9
20260509202805 20 263 4.8 9.7 0.00 0.56 0.56 60 1006.1
20260509202305 20 264 6.4 8.0 0.00 0.56 0.56 59 1006.3
20260509201801 20 258 0.0 1.6 0.00 0.56 0.56 65 1006.2
20260509201258 20 216 14.5 17.7 0.00 0.56 0.56 60 1006.0
20260509200754 20 226 3.2 4.8 0.00 0.56 0.56 63 1006.2
20260509200249 20 257 3.2 3.2 0.00 0.56 0.56 63 1006.4
20260509195747 20 255 1.6 1.6 0.00 0.56 0.56 64 1006.4
20260509195242 20 254 1.6 3.2 0.00 0.56 0.56 63 1006.5
20260509194742 19 223 8.0 9.7 0.00 0.56 0.56 64 1006.7
20260509194238 20 256 3.2 3.2 0.00 0.56 0.56 63 1006.7
20260509193735 18 244 4.8 4.8 0.00 0.56 0.56 65 1006.7
20260509193235 19 226 4.8 8.0 0.00 0.56 0.56 65 1006.9
20260509192731 20 258 1.6 1.6 0.00 0.56 0.56 63 1006.8
20260509192226 20 241 1.6 1.6 0.00 0.56 0.56 63 1006.8
20260509191722 20 280 16.1 25.7 0.00 0.56 0.56 63 1006.3
20260509191219 20 217 6.4 9.7 0.00 0.56 0.56 64 1006.8
20260509190715 18 228 6.4 9.7 0.00 0.56 0.56 66 1007.0
20260509190212 18 262 4.8 8.0 0.00 0.56 0.56 66 1007.0
20260509185710 20 261 3.2 3.2 0.00 0.56 0.56 68 1007.0
20260509185206 19 225 3.2 4.8 0.00 0.56 0.56 68 1006.9
20260509184703 19 269 3.2 4.8 0.00 0.56 0.56 71 1007.0
20260509184200 18 236 8.0 9.7 0.00 0.56 0.56 70 1006.8
20260509183656 18 240 3.2 3.2 0.00 0.56 0.56 69 1006.9
20260509183152 18 258 1.6 3.2 0.00 0.56 0.56 73 1006.8
20260509182647 18 258 3.2 4.8 0.00 0.56 0.56 73 1007.2
20260509182145 18 239 1.6 3.2 0.00 0.56 0.56 75 1007.1
20260509181643 18 212 3.2 4.8 0.00 0.56 0.56 74 1007.1
20260509181141 17 243 1.6 3.2 0.00 0.56 0.56 78 1007.0
20260509180637 17 251 1.6 3.2 0.00 0.56 0.56 79 1007.2
20260509180133 17 227 4.8 8.0 0.00 0.56 0.56 79 1007.3
20260509175629 17 218 8.0 11.3 0.00 0.56 0.56 78 1007.3
20260509175126 17 241 8.0 11.3 0.00 0.56 0.56 77 1007.2
20260509174622 17 252 1.6 1.6 0.00 0.56 0.56 81 1007.4
20260509174117 17 268 3.2 3.2 0.00 0.56 0.56 79 1007.2
20260509173613 17 252 1.6 3.2 0.00 0.56 0.56 80 1007.0
20260509173109 16 253 0.0 1.6 0.00 0.56 0.56 81 1007.1
20260509172606 17 244 4.8 8.0 0.00 0.56 0.56 79 1007.3
20260509172102 16 253 0.0 1.6 0.00 0.56 0.56 86 1007.3
20260509171558 16 270 1.6 1.6 0.00 0.56 0.56 84 1007.5
20260509171054 16 260 0.0 0.0 0.00 0.56 0.56 86 1007.4
20260509170550 16 245 1.6 1.6 0.00 0.56 0.56 85 1007.4
20260509170047 16 250 0.0 1.6 0.00 0.56 0.56 85 1007.4
20260509165545 15 261 1.6 1.6 0.00 0.56 0.56 87 1007.5
20260509165041 15 226 4.8 4.8 0.00 0.56 0.56 88 1007.4
20260509164537 15 254 0.0 0.0 0.00 0.56 0.56 90 1007.5
20260509164033 15 251 1.6 1.6 0.00 0.56 0.56 90 1007.7
20260509163531 15 274 1.6 3.2 0.00 0.56 0.56 92 1007.5
20260509163026 14 255 0.0 1.6 0.00 0.56 0.56 93 1007.5
20260509162524 13 256 1.6 1.6 0.00 0.56 0.56 93 1007.5
20260509162019 13 250 1.6 1.6 0.00 0.56 0.56 93 1007.7
20260509161516 13 222 4.8 4.8 0.00 0.56 0.56 93 1007.5
20260509161011 14 261 1.6 1.6 0.00 0.56 0.56 94 1007.6
20260509160507 13 253 1.6 1.6 0.00 0.56 0.56 95 1007.5
20260509160003 13 263 6.4 8.0 0.00 0.56 0.56 95 1007.4
20260509155459 13 241 1.6 3.2 0.00 0.56 0.56 97 1007.5
20260509154955 12 254 1.6 3.2 0.00 0.56 0.56 97 1007.4
20260509154451 12 241 1.6 3.2 0.00 0.56 0.56 98 1007.6
20260509153949 12 236 3.2 4.8 0.00 0.56 0.56 99 1007.5
20260509153446 12 252 4.8 9.7 0.00 0.56 0.56 99 1007.3
20260509152943 13 221 4.8 8.0 0.00 0.56 0.56 99 1007.2
20260509152438 12 250 3.2 3.2 0.00 0.56 0.56 99 1007.3
20260509151936 12 232 1.6 3.2 0.00 0.56 0.56 99 1007.4
20260509151432 12 237 3.2 4.8 0.00 0.56 0.56 99 1007.3
20260509150930 12 268 3.2 4.8 0.00 0.56 0.56 99 1007.6
20260509150427 11 254 0.0 0.0 0.00 0.56 0.56 99 1007.4
20260509145926 11 245 0.0 1.6 0.00 0.56 0.56 99 1007.4
20260509145425 11 229 1.6 3.2 0.00 0.56 0.56 99 1007.5
20260509144921 11 253 3.2 3.2 0.00 0.56 0.56 99 1007.4
20260509144418 11 256 0.0 0.0 0.18 0.56 0.56 99 1007.4
20260509143915 11 256 3.2 4.8 0.18 0.56 0.56 99 1007.4
20260509143412 11 250 0.0 0.0 0.30 0.53 0.53 99 1007.6
20260509142908 11 251 1.6 1.6 0.48 0.53 0.53 99 1007.5
20260509142405 11 246 0.0 0.0 0.18 0.48 0.48 99 1007.5
20260509141901 11 244 0.0 1.6 0.00 0.46 0.46 99 1007.5
20260509141358 11 256 0.0 0.0 0.00 0.46 0.46 99 1007.5
20260509140854 11 255 1.6 1.6 0.00 0.46 0.46 99 1007.5
20260509140351 11 253 0.0 0.0 0.00 0.46 0.46 99 1007.4
20260509135849 11 251 0.0 0.0 0.00 0.46 0.46 99 1007.5
20260509135346 11 243 0.0 1.6 0.00 0.46 0.46 99 1007.5
20260509134844 11 256 1.6 1.6 0.00 0.46 0.46 99 1007.5
20260509134341 11 248 1.6 3.2 0.00 0.46 0.46 99 1007.6
20260509133837 11 240 1.6 1.6 0.00 0.46 0.46 99 1007.5
20260509133334 11 260 1.6 1.6 0.00 0.46 0.46 99 1007.6
20260509132833 11 269 0.0 1.6 0.00 0.46 0.46 99 1007.7
20260509132331 10 255 0.0 0.0 0.00 0.46 0.46 99 1007.7
20260509131828 10 247 0.0 0.0 0.00 0.46 0.46 99 1007.6
20260509131324 10 268 0.0 0.0 0.00 0.46 0.46 99 1007.8
20260509130821 10 261 1.6 1.6 0.00 0.46 0.46 99 1007.6
20260509130317 10 257 0.0 0.0 0.00 0.46 0.46 99 1007.5
20260509125814 10 213 6.4 9.7 0.00 0.46 0.46 99 1007.5
20260509125310 10 246 1.6 1.6 0.00 0.46 0.46 99 1007.7
20260509124806 10 252 0.0 1.6 0.00 0.46 0.46 99 1007.6
20260509124303 10 254 1.6 1.6 0.00 0.46 0.46 99 1007.7
20260509123801 10 254 3.2 3.2 0.00 0.46 0.46 99 1007.7
20260509123258 10 245 1.6 1.6 0.00 0.46 0.46 99 1007.8
20260509122754 10 248 0.0 0.0 0.00 0.46 0.46 99 1007.5
20260509122252 10 253 0.0 0.0 0.00 0.46 0.46 99 1007.8
20260509121748 10 252 0.0 0.0 0.00 0.46 0.46 99 1007.7
20260509121245 10 255 0.0 0.0 0.00 0.46 0.46 99 1007.9
20260509120743 10 253 0.0 0.0 0.00 0.46 0.46 99 1007.8
20260509120241 10 253 0.0 0.0 0.00 0.46 0.46 99 1007.7
20260509115739 10 255 0.0 0.0 0.00 0.46 0.46 99 1008.0
20260509115235 10 257 0.0 0.0 0.00 0.46 0.46 99 1007.8
20260509114734 10 254 0.0 0.0 0.00 0.46 0.46 99 1007.9
20260509114232 10 256 0.0 0.0 0.00 0.46 0.46 99 1007.6
20260509113731 10 251 0.0 0.0 0.00 0.46 0.46 99 1007.7
20260509113228 10 255 0.0 0.0 0.13 0.46 0.46 99 1007.5
20260509112724 9 250 0.0 0.0 0.13 0.46 0.46 99 1007.7
20260509112222 9 250 0.0 1.6 0.00 0.43 0.43 99 1007.9
20260509111718 9 237 0.0 1.6 0.00 0.43 0.43 99 1007.7
20260509111215 9 251 0.0 0.0 0.00 0.43 0.43 99 1007.5
20260509110713 9 250 0.0 0.0 0.00 0.43 0.43 99 1007.7
20260509110209 9 257 1.6 3.2 0.00 0.43 0.43 99 1007.6
20260509105708 9 246 1.6 1.6 0.00 0.43 0.43 99 1007.5
20260509105204 9 244 1.6 1.6 0.00 0.43 0.43 99 1007.8
20260509104701 9 242 1.6 1.6 0.18 0.43 0.43 99 1007.5
20260509104158 9 251 0.0 0.0 0.18 0.43 0.43 99 1007.6
20260509103656 9 250 0.0 0.0 0.00 0.41 0.41 99 1007.8
20260509103153 9 250 0.0 1.6 0.00 0.41 0.41 99 1007.7
20260509102651 9 243 3.2 3.2 0.13 0.41 0.41 99 1007.5
20260509102148 9 246 0.0 1.6 0.13 0.41 0.41 99 1007.6
20260509101644 9 245 0.0 0.0 0.00 0.38 0.38 99 1007.5
20260509101141 9 248 0.0 0.0 0.18 0.38 0.38 99 1007.8
20260509100638 9 255 0.0 0.0 0.18 0.38 0.38 99 1007.8
20260509100135 9 259 0.0 0.0 0.00 0.36 0.36 99 1007.8
20260509095631 9 253 0.0 0.0 0.00 0.36 0.36 99 1007.8
20260509095129 9 248 0.0 0.0 0.00 0.36 0.36 99 1007.6
20260509094625 9 250 0.0 0.0 0.13 0.36 0.36 99 1007.8
20260509094122 9 250 0.0 0.0 0.13 0.36 0.36 99 1007.9
20260509093622 9 240 1.6 3.2 0.18 0.33 0.33 99 1008.0
20260509093118 9 243 1.6 1.6 0.18 0.33 0.33 99 1008.1
20260509092616 9 254 0.0 1.6 0.00 0.30 0.30 99 1008.4
20260509092114 9 254 0.0 1.6 0.13 0.30 0.30 99 1008.2
20260509091611 9 250 0.0 0.0 0.13 0.30 0.30 99 1008.4
20260509091107 9 254 0.0 0.0 0.00 0.28 0.28 99 1008.0
20260509090605 9 251 0.0 0.0 0.18 0.28 0.28 99 1008.1
20260509090057 9 250 0.0 0.0 0.18 0.28 0.28 99 1008.2
20260509085554 9 251 0.0 0.0 0.13 0.25 0.25 99 1008.4
20260509085050 9 251 0.0 0.0 0.13 0.25 0.25 99 1008.4
20260509084548 9 250 0.0 0.0 0.18 0.23 0.23 99 1008.4
20260509084045 9 250 0.0 0.0 0.18 0.23 0.23 99 1008.3
20260509083542 9 256 0.0 0.0 0.18 0.20 0.20 99 1008.3
20260509083038 9 253 0.0 0.0 0.18 0.20 0.20 99 1008.6
20260509082536 9 249 0.0 0.0 0.00 0.18 0.18 99 1008.5
20260509082033 9 259 3.2 3.2 0.13 0.18 0.18 99 1008.6
20260509081530 9 244 0.0 0.0 0.13 0.18 0.18 99 1008.7
20260509081027 9 250 0.0 0.0 0.30 0.15 0.15 99 1008.7
20260509080525 9 251 0.0 0.0 0.48 0.15 0.15 99 1008.7
20260509080023 9 253 0.0 0.0 0.18 0.10 0.10 99 1008.8
20260509075520 9 255 0.0 0.0 0.00 0.08 0.08 99 1008.7
20260509075018 9 255 0.0 0.0 0.00 0.08 0.08 99 1008.8
20260509074515 9 251 0.0 0.0 0.00 0.08 0.08 99 1008.7
20260509074011 9 250 0.0 0.0 0.00 0.08 0.08 99 1008.7
20260509073508 9 250 0.0 0.0 0.00 0.08 0.08 99 1008.6
20260509073004 9 250 0.0 0.0 0.13 0.08 0.08 99 1008.5
20260509072501 9 248 0.0 0.0 0.13 0.08 0.08 99 1008.5
20260509071957 9 252 0.0 0.0 0.13 0.08 0.08 99 1008.4
20260509071454 9 254 0.0 0.0 0.00 0.05 0.05 99 1008.5
20260509070952 9 254 0.0 0.0 0.00 0.05 0.05 99 1008.6
20260509070449 9 255 0.0 0.0 0.00 0.05 0.05 99 1008.6
20260509065944 9 255 0.0 0.0 0.00 0.05 0.05 99 1008.6
20260509065440 9 255 0.0 0.0 0.00 0.05 0.05 99 1008.6
20260509064936 9 255 0.0 0.0 0.00 0.05 0.05 99 1008.6
20260509064434 9 255 0.0 0.0 0.00 0.05 0.05 99 1008.5
20260509063932 9 254 0.0 0.0 0.00 0.05 0.05 99 1008.4
20260509063427 9 253 0.0 0.0 0.00 0.05 0.05 99 1008.6
20260509062924 9 254 0.0 0.0 0.00 0.05 0.05 99 1008.7
20260509062421 9 254 0.0 0.0 0.00 0.05 0.05 99 1008.7
20260509061919 9 254 0.0 0.0 0.00 0.05 0.05 99 1009.1
20260509061417 9 254 0.0 0.0 0.00 0.05 0.05 99 1008.9